User: anonymous   Login
Location: Lawrence
(38.9720°N, 95.2350°W)
Time: 03:42:01
(UTC-05:00)
Language:

ALOS - Orbit

View from above orbital plane
View from above orbital plane
View from above satellite
View from above satellite

Ground track
Ground track

The orbit data is extracted from the following two-line orbital elements,

1 28931U 06002A   16146.56508701  .00000327  00000-0  73789-4 0  9991
2 28931  97.8869 186.3782 0002713  94.1818 265.9694 14.62190933550819
Epoch (UTC): 25 May 2016 13:33:43
Eccentricity: 0.0002713
inclination: 97.8869°
perigee height: 684 km
apogee height: 688 km
right ascension of ascending node: 186.3782°
argument of perigee: 94.1818°
revolutions per day: 14.62190933
mean anomaly at epoch: 265.9694°
orbit number at epoch: 55081

The dashed part of the orbit path shows where the satellite is in the earth's shadow,  

DLR